GW0890 Weather Reports


time (UTC)temp
F
wind
direction
speed
knots
gust
knots
rain 1hr
in
rain 24hr
in
rain mn
in
humidity
%
barometer
mb
20260831181506 89 41 2.6 6.1 0.00 0.00 0.00 72 1017.8
20260831181501 89 43 2.6 6.1 0.00 0.00 0.00 73 1017.8
20260831180112 88 36 2.6 7.0 0.00 0.00 0.00 72 1017.7
20260831174554 87 77 3.5 7.0 0.00 0.00 0.00 74 1017.8
20260831173124 86 32 0.0 6.1 0.00 0.00 0.00 74 1018.0
20260831171523 87 17 0.9 7.8 0.00 0.00 0.00 75 1018.1
20260831170033 86 22 5.2 7.8 0.00 0.00 0.00 75 1018.1
20260831164520 85 67 3.5 7.8 0.00 0.00 0.00 78 1018.3
20260831163011 83 61 3.5 7.8 0.00 0.00 0.00 80 1018.2
20260831161508 82 41 0.9 7.0 0.00 0.00 0.00 83 1018.4
20260831160034 80 307 0.0 0.0 0.00 0.00 0.00 87 1018.5
20260831154533 78 311 0.0 0.0 0.00 0.00 0.00 90 1018.5
20260831153023 76 296 0.0 0.0 0.00 0.00 0.00 95 1018.5
20260831151521 75 213 0.0 0.0 0.00 0.00 0.00 98 1018.5
20260831150022 74 213 0.0 0.0 0.00 0.00 0.00 99 1018.7
20260831144512 74 213 0.0 0.0 0.00 0.00 0.00 99 1018.6
20260831143006 73 212 0.0 0.0 0.00 0.00 0.00 100 1018.5
20260831141501 73 212 0.0 0.0 0.00 0.00 0.00 100 1018.4
20260831140059 73 212 0.0 0.0 0.00 0.00 0.00 100 1018.3
20260831134553 72 212 0.0 0.0 0.00 0.00 0.00 100 1018.2
20260831133048 72 212 0.0 0.0 0.00 0.00 0.00 100 1018.3
20260831131543 71 212 0.0 0.0 0.00 0.00 0.00 100 1018.4
20260831130047 70 212 0.0 0.0 0.00 0.00 0.00 100 1018.3
20260831124541 70 212 0.0 0.0 0.00 0.00 0.00 100 1018.1
20260831123042 69 212 0.0 0.0 0.00 0.00 0.00 99 1018.1
20260831121543 69 212 0.0 0.0 0.00 0.00 0.00 99 1018.2
20260831120037 68 212 0.0 0.0 0.00 0.00 0.00 99 1018.1
20260831114535 68 212 0.0 0.0 0.00 0.00 0.00 99 1018.0
20260831113032 68 212 0.0 0.0 0.00 0.00 0.00 99 1017.8
20260831111529 68 212 0.0 0.0 0.00 0.00 0.00 99 1017.6
20260831110029 68 212 0.0 0.0 0.00 0.00 0.00 99 1017.5
20260831104530 68 212 0.0 0.0 0.00 0.00 0.00 99 1017.5
20260831103056 68 212 0.0 0.0 0.00 0.00 0.00 99 1017.4
20260831101556 68 212 0.0 0.0 0.00 0.00 0.00 99 1017.3
20260831100105 68 212 0.0 0.0 0.00 0.00 0.00 99 1017.3
20260831094552 68 212 0.0 0.0 0.00 0.00 0.00 99 1017.2
20260831093052 68 212 0.0 0.0 0.00 0.00 0.00 99 1017.2
20260831091551 68 211 0.0 0.0 0.00 0.00 0.00 99 1017.2
20260831090021 68 211 0.0 0.0 0.00 0.00 0.00 99 1017.2
20260831084533 68 211 0.0 0.0 0.00 0.00 0.00 99 1017.1
20260831083035 69 211 0.0 0.0 0.00 0.00 0.00 99 1017.1
20260831081517 69 211 0.0 0.0 0.00 0.00 0.00 99 1016.9
20260831080026 69 211 0.0 0.0 0.00 0.00 0.00 99 1016.8
20260831074517 69 211 0.0 0.0 0.00 0.00 0.00 99 1016.8
20260831073018 69 211 0.0 0.0 0.00 0.00 0.00 99 1016.8
20260831071510 69 211 0.0 0.0 0.00 0.00 0.00 99 1016.8
20260831070008 70 211 0.0 0.0 0.00 0.00 0.00 99 1016.8
20260831064509 70 211 0.0 0.0 0.00 0.00 0.00 99 1017.0
20260831063004 70 211 0.0 1.7 0.00 0.00 0.00 99 1016.9
20260831061503 70 211 0.0 0.0 0.00 0.00 0.00 98 1017.0
20260831060002 70 211 0.0 0.9 0.00 0.00 0.00 99 1017.1
20260831054603 70 211 0.0 0.0 0.00 0.00 0.00 98 1017.1
20260831053158 71 210 0.0 0.0 0.00 0.00 0.00 98 1017.2
20260831051554 71 210 0.0 0.0 0.00 0.00 0.00 99 1017.3
20260831050049 71 210 0.0 0.0 0.00 0.00 0.00 98 1017.2
20260831044554 71 210 0.0 0.0 0.00 0.00 0.00 98 1017.2
20260831043048 72 210 0.0 0.0 0.00 0.00 0.00 98 1017.3
20260831041517 72 209 0.0 0.0 0.00 0.00 0.00 98 1017.4
20260831040021 72 209 0.0 0.0 0.00 0.00 0.00 98 1017.5
20260831034519 72 209 0.0 0.0 0.00 0.00 0.00 98 1017.5
20260831033114 73 209 0.0 0.0 0.00 0.00 0.00 98 1017.5
20260831031518 73 209 0.0 1.7 0.00 0.00 0.00 98 1017.4
20260831030013 73 209 0.0 0.0 0.00 0.00 0.00 98 1017.4
20260831024512 73 209 0.0 0.0 0.00 0.00 0.00 98 1017.4
20260831023013 73 209 0.0 0.0 0.00 0.00 0.00 98 1017.3
20260831021509 73 209 0.0 0.0 0.00 0.00 0.00 98 1017.2
20260831020009 73 209 0.0 0.0 0.00 0.00 0.00 97 1017.2
20260831014509 73 207 0.0 1.7 0.00 0.00 0.00 97 1017.2
20260831013008 74 205 0.0 0.0 0.00 0.00 0.00 97 1017.2
20260831011509 74 205 0.0 1.7 0.00 0.00 0.00 97 1017.3
20260831010009 74 205 0.0 0.9 0.00 0.00 0.00 96 1017.0
20260831004600 75 205 0.0 0.0 0.00 0.00 0.00 96 1016.8
20260831003100 75 204 0.0 0.0 0.00 0.00 0.00 95 1016.5
20260831001606 76 203 0.0 0.0 0.00 0.00 0.00 95 1016.7
20260830234556 77 203 0.0 0.0 0.00 0.00 0.00 93 1016.3
20260830233105 79 200 0.0 0.0 0.00 0.00 0.00 92 1016.1
20260830231604 79 200 0.0 0.0 0.00 0.00 0.00 92 1015.9
20260830230056 78 200 0.0 0.0 0.00 0.00 0.00 92 1015.7
20260830224610 79 197 0.0 0.0 0.00 0.00 0.00 92 1015.8
20260830223055 79 196 0.0 0.0 0.00 0.00 0.00 91 1015.8
20260830221601 78 196 0.0 0.9 0.00 0.00 0.00 92 1016.1
20260830220055 78 194 0.0 1.7 0.00 0.00 0.00 92 1016.4
20260830214555 78 194 0.0 3.5 0.00 0.00 0.00 92 1016.5
20260830213047 79 189 1.7 4.3 0.00 0.00 0.00 90 1016.4
20260830211545 79 188 1.7 2.6 0.00 0.00 0.00 88 1016.6
20260830210044 79 188 2.6 3.5 0.00 0.00 0.00 87 1016.6
20260830204540 79 179 1.7 4.3 0.00 0.00 0.00 87 1016.5
20260830203038 79 153 1.7 6.1 0.00 0.00 0.00 88 1016.9
20260830201541 79 180 0.0 3.5 0.00 0.00 0.00 93 1017.3
20260830200037 76 196 0.0 0.0 0.00 0.00 0.00 94 1017.0
20260830194533 75 196 0.0 0.0 0.00 0.00 0.00 95 1017.3
20260830193032 73 197 4.3 7.0 0.00 0.00 0.00 94 1017.5
20260830191530 73 142 0.9 7.8 0.00 0.00 0.00 91 1018.5
20260830190032 74 84 3.5 11.3 0.00 0.00 0.00 88 1018.2
20260830184527 79 190 9.6 18.2 0.00 0.00 0.00 74 1017.7
20260830183027 89 144 5.2 10.4 0.00 0.00 0.00 64 1017.9